Wind_Speed
30 30 30 30 31 31 32 33 33 33 33 33 33 34 35 36 36 36 36 36 37 38 39 40 41 43 43 43 44 45 46 47 47 48 49 50 51 51 52 53 53 53 53 53
30 30 30 30 30 31 33 33 33 34 33 33 34 35 36 36 36 36 37 37 37 37 38 39 40 42 43 43 44 44 45 46 46 47 48 48 49 50 51 52 52 52 52 53
31 30 31 31 29 30 31 32 33 34 34 34 35 35 35 36 36 36 37 37 37 38 38 38 40 41 41 42 43 44 44 45 45 46 47 48 49 49 50 50 51 52 53 53
31 31 31 30 30 30 30 30 32 34 34 34 35 34 34 35 35 34 35 36 37 38 39 39 40 40 41 42 43 43 44 45 45 46 47 47 48 49 50 50 50 51 52 53
31 31 32 30 30 30 31 30 31 32 33 34 34 35 35 35 35 35 35 36 37 38 38 39 39 39 39 40 41 42 43 44 44 45 46 47 47 48 48 49 49 49 49 50
31 32 32 31 31 31 32 32 31 31 32 33 33 34 34 34 35 35 36 36 36 36 37 38 38 39 40 40 41 41 42 42 43 44 44 45 45 46 46 47 47 47 48 48
30 31 32 31 31 32 32 32 32 31 31 31 31 32 32 33 33 34 34 34 35 36 36 37 38 38 38 39 40 40 41 41 42 42 43 43 44 44 45 45 45 45 46 46
30 31 31 31 31 32 33 33 32 32 31 31 31 31 31 31 32 32 33 33 33 34 35 35 35 36 37 37 38 39 39 40 40 41 41 42 42 42 43 43 44 44 44 44
31 30 31 31 31 31 32 32 32 32 31 31 30 30 31 31 31 32 33 33 33 34 34 34 34 34 34 35 35 36 37 37 38 39 39 40 40 41 42 42 42 42 42 42
31 30 30 30 30 30 30 31 30 29 29 29 29 30 30 30 31 32 32 33 33 33 33 33 32 32 32 33 33 34 34 34 35 36 37 38 38 39 40 40 40 40 41 41
30 29 29 29 30 30 30 29 28 28 28 28 28 29 29 30 30 30 31 31 32 32 32 32 32 32 31 32 32 32 32 32 33 34 35 36 37 37 37 37 38 38 39 40
29 29 29 29 29 29 29 28 27 27 27 28 28 28 28 29 29 30 30 31 31 31 31 31 32 32 32 32 31 31 31 32 32 33 34 35 35 35 35 36 36 37 38 39
30 29 30 30 29 29 28 28 27 27 27 27 27 28 28 28 28 29 29 30 30 30 31 32 32 32 33 33 33 32 32 33 33 33 33 33 34 34 34 35 36 37 38 38
30 30 30 30 30 29 29 28 27 27 27 27 26 26 27 27 27 28 29 30 30 31 31 32 32 32 32 32 33 33 34 34 33 33 33 33 34 34 34 35 35 36 37 38
30 30 30 30 29 29 29 29 28 27 27 27 27 27 27 27 27 28 29 29 30 30 31 32 32 32 32 33 33 33 33 33 34 34 34 34 34 34 34 35 35 35 36 36
30 30 30 29 29 29 29 29 29 28 28 28 28 29 29 29 29 29 30 30 30 31 32 32 32 32 33 33 33 33 33 33 34 34 34 33 33 34 34 35 35 35 35 35
29 29 29 29 29 29 30 30 29 29 29 29 29 29 29 29 30 30 31 31 31 32 32 32 32 32 32 32 33 33 33 33 34 34 33 33 34 34 34 34 35 35 35 35
29 29 30 30 30 30 30 30 30 30 30 30 30 30 30 30 31 32 32 32 32 32 32 32 32 31 32 31 31 31 31 32 32 32 32 32 33 33 33 32 32 32 33 33
29 30 30 31 31 31 31 31 30 30 30 30 31 31 31 31 32 33 33 33 32 32 32 31 31 31 31 30 30 30 30 30 30 30 30 31 31 31 30 30 30 30 30 30
30 30 30 30 30 30 30 30 30 31 31 31 32 32 32 33 33 33 33 33 33 32 32 32 32 31 30 30 30 29 29 29 29 29 29 29 29 29 29 29 28 28 28 28
31 31 30 30 30 30 30 30 30 30 31 32 32 33 33 33 34 34 33 33 33 33 33 32 32 31 30 30 29 28 28 28 28 28 29 29 28 28 28 28 27 27 27 26
30 30 30 29 29 29 29 29 29 30 31 31 32 33 33 34 34 34 34 34 34 33 33 32 31 31 30 30 29 29 28 28 29 29 28 28 27 27 27 26 26 26 25 25
30 29 29 29 29 29 29 29 29 30 31 32 32 33 33 33 33 33 33 33 33 32 32 31 31 30 30 30 30 30 29 29 29 28 28 27 26 26 25 25 24 24 24 24
30 29 29 29 29 29 29 29 29 30 31 32 32 33 33 33 33 33 33 32 32 31 31 31 31 31 31 30 30 30 29 29 28 27 27 26 26 25 24 23 23 23 23 23
30 30 29 29 29 29 29 29 29 30 30 31 31 31 32 32 32 32 32 31 31 30 30 30 31 31 31 30 30 29 29 28 27 27 26 25 24 24 23 22 22 22 22 23
30 30 30 29 29 29 29 30 30 30 30 31 31 31 31 31 31 31 31 31 31 30 30 30 30 30 30 29 29 28 28 27 26 26 25 25 24 23 23 22 22 22 22 22
30 30 30 30 30 30 30 30 30 30 31 31 31 31 30 30 30 30 30 30 30 30 30 30 30 29 29 29 28 28 27 26 26 26 25 24 24 23 23 23 23 23 23 23
Wind_Direction
281 282 281 280 278 278 278 279 278 278 278 278 278 277 277 277 276 275 272 272 272 271 270 270 268 266 266 266 265 265 264 264 264 263 262 262 261 261 262 263 264 264 265 265
280 280 281 281 280 279 277 278 279 279 279 279 278 277 277 276 276 276 275 274 274 273 273 272 271 270 268 267 266 265 265 265 265 265 265 264 264 263 263 263 264 265 265 265
283 283 283 283 284 283 281 278 278 280 280 279 277 277 276 276 276 275 274 273 274 275 275 273 272 271 270 268 267 266 266 266 266 266 267 266 266 266 265 265 264 264 264 265
287 286 286 288 286 285 284 282 280 279 278 278 278 277 278 277 276 275 274 273 274 276 276 274 274 273 271 270 269 268 267 267 267 267 267 268 268 267 266 266 266 265 265 265
288 287 288 289 290 289 287 285 283 281 279 278 277 277 278 279 277 276 275 275 277 277 277 276 275 275 273 272 272 271 269 268 268 268 269 269 269 269 268 268 267 266 266 266
288 288 289 291 291 290 289 288 287 284 282 280 280 279 279 278 278 278 277 277 278 278 278 278 277 276 275 273 273 273 271 270 269 269 269 269 269 269 269 268 268 267 267 267
289 289 290 292 292 291 289 290 288 285 283 282 283 283 282 280 280 280 280 279 280 280 281 280 279 277 276 275 274 274 273 272 270 270 270 270 270 269 269 269 269 268 268 267
291 291 292 292 291 290 290 290 288 286 284 283 282 283 282 282 282 282 282 282 282 283 284 283 281 280 279 277 276 275 275 274 273 272 272 271 271 270 270 270 270 269 268 267
290 291 291 292 291 291 291 291 290 287 285 283 282 283 283 282 281 281 282 283 284 285 285 285 284 283 282 280 279 278 278 276 274 273 273 273 272 272 271 271 270 269 268 267
289 290 290 291 292 291 291 292 292 289 287 285 283 284 284 283 282 282 283 284 285 286 286 286 286 285 285 283 282 281 279 277 275 275 275 275 275 274 272 271 271 269 269 268
289 289 290 291 291 291 292 292 292 290 288 287 286 286 286 285 284 284 285 286 287 288 288 287 287 287 286 286 284 283 282 280 278 278 277 277 277 275 274 272 271 270 270 269
289 290 290 291 291 291 292 292 292 291 289 288 288 287 287 286 285 286 287 288 289 289 289 289 289 288 287 287 286 285 284 283 282 281 280 278 277 275 274 272 271 271 271 270
289 290 290 290 291 291 291 291 291 291 290 289 288 287 286 286 287 287 288 289 290 290 290 289 289 289 289 287 287 286 286 286 285 283 282 280 278 276 274 272 272 272 272 272
288 289 290 290 290 290 289 289 289 289 290 289 289 288 287 288 289 290 291 291 291 291 291 291 291 290 289 288 288 288 287 286 285 284 282 281 279 277 275 274 273 274 273 273
289 290 291 290 290 289 289 289 288 287 288 288 287 287 287 288 290 292 293 294 294 293 293 293 292 291 290 289 288 288 287 286 285 284 283 282 281 279 278 276 276 275 275 274
289 290 291 291 290 290 290 290 288 287 286 286 286 286 287 288 290 292 293 294 294 294 294 294 293 292 291 290 288 287 286 286 285 285 284 283 282 281 280 279 278 277 276 275
291 291 291 291 290 290 290 290 289 287 285 285 286 286 287 289 290 291 293 294 295 294 294 295 295 294 294 292 290 289 288 286 286 285 285 285 284 283 282 281 280 278 277 276
292 292 293 293 292 290 289 288 287 286 285 285 286 287 287 288 290 291 292 293 294 295 295 295 295 295 295 294 292 291 289 288 287 287 287 287 286 285 284 283 282 280 278 277
293 293 294 293 293 292 289 287 285 285 285 285 285 286 287 288 290 290 291 293 294 294 294 294 295 295 295 295 294 293 292 291 290 289 289 289 288 288 286 285 284 282 280 278
294 295 295 295 293 292 290 288 286 284 285 285 285 286 286 287 289 291 292 293 293 293 292 293 294 295 296 295 295 294 293 292 292 291 291 290 289 288 287 286 284 282 281 280
295 296 295 295 294 293 291 290 287 286 286 286 286 286 286 287 289 291 290 291 291 291 291 292 293 293 294 294 294 294 294 293 293 292 291 291 290 288 287 286 284 282 281 281
297 297 296 295 294 293 292 291 290 288 287 288 288 288 288 289 290 291 290 290 290 290 290 291 291 292 292 292 293 294 293 294 294 293 293 291 290 289 288 286 284 283 282 281
299 299 298 297 296 294 294 293 291 290 290 290 290 291 290 290 291 291 290 290 290 289 290 290 290 291 291 292 292 292 293 293 293 293 292 291 289 288 287 286 284 283 282 282
300 300 300 299 297 295 294 294 293 293 293 293 293 292 291 291 291 291 291 290 289 289 289 289 289 290 291 291 291 291 291 292 293 293 292 291 289 287 286 286 285 284 283 283
301 301 300 299 298 296 295 295 295 295 296 295 295 293 293 292 292 292 291 290 290 290 290 290 290 290 290 291 290 290 290 291 291 292 292 291 289 287 285 285 285 286 286 285
301 301 301 300 299 298 297 296 296 296 297 297 296 295 294 294 293 293 291 291 290 290 290 291 291 290 290 290 289 288 288 289 289 290 290 290 288 286 285 284 285 287 287 287
301 301 301 300 300 299 299 299 298 298 298 298 299 298 296 296 295 293 292 291 291 291 291 291 291 291 290 290 289 288 287 287 287 288 288 288 287 286 285 284 284 286 286 286
Height
5560 5558 5557 5556 5556 5554 5553 5552 5551 5552 5551 5551 5549 5547 5546 5545 5545 5544 5544 5544 5544 5544 5544 5544 5544 5544 5544 5544 5544 5544 5544 5544 5545 5545 5546 5546 5547 5548 5549 5550 5551 5551 5551 5552
5552 5551 5549 5548 5547 5546 5545 5543 5542 5542 5542 5541 5539 5537 5536 5535 5535 5534 5534 5534 5533 5533 5533 5533 5532 5532 5532 5532 5532 5531 5531 5531 5531 5531 5532 5532 5533 5534 5534 5535 5536 5536 5537 5537
5544 5542 5540 5540 5540 5537 5536 5535 5534 5532 5533 5531 5529 5528 5527 5526 5525 5524 5523 5523 5523 5522 5522 5521 5520 5520 5520 5519 5519 5519 5518 5518 5518 5518 5518 5518 5519 5519 5520 5521 5521 5522 5522 5523
5534 5534 5532 5535 5531 5529 5527 5526 5524 5523 5522 5521 5520 5518 5517 5516 5515 5514 5513 5512 5511 5511 5510 5509 5509 5508 5507 5507 5506 5506 5506 5506 5505 5505 5505 5505 5505 5505 5506 5506 5506 5507 5507 5508
5526 5524 5523 5525 5522 5520 5518 5517 5516 5514 5512 5511 5509 5508 5508 5506 5505 5504 5503 5502 5501 5500 5499 5498 5497 5496 5495 5494 5493 5493 5492 5492 5492 5492 5492 5492 5492 5492 5492 5492 5492 5492 5492 5493
5518 5516 5515 5517 5514 5510 5509 5508 5507 5504 5502 5501 5500 5499 5499 5496 5495 5493 5492 5491 5490 5489 5488 5486 5485 5484 5483 5482 5481 5480 5480 5479 5479 5478 5478 5478 5478 5478 5478 5478 5478 5478 5478 5479
5511 5508 5507 5507 5504 5502 5501 5500 5497 5495 5493 5492 5490 5489 5488 5486 5485 5483 5482 5481 5480 5478 5477 5475 5473 5472 5471 5470 5469 5468 5467 5466 5466 5465 5465 5464 5464 5464 5464 5464 5464 5465 5465 5466
5503 5501 5502 5498 5496 5494 5492 5489 5487 5485 5484 5482 5481 5480 5478 5477 5475 5474 5472 5471 5470 5468 5466 5464 5462 5460 5459 5458 5457 5456 5454 5454 5453 5452 5452 5451 5451 5451 5451 5451 5451 5451 5452 5452
5497 5496 5493 5490 5487 5485 5483 5481 5478 5476 5475 5473 5472 5471 5469 5468 5466 5465 5463 5462 5460 5458 5456 5454 5452 5450 5448 5447 5445 5444 5443 5442 5441 5440 5439 5439 5438 5438 5438 5438 5438 5438 5439 5439
5488 5487 5484 5481 5479 5477 5475 5472 5470 5468 5466 5464 5463 5462 5460 5459 5457 5456 5454 5452 5450 5448 5446 5444 5442 5440 5438 5436 5434 5433 5431 5430 5429 5428 5428 5427 5426 5425 5425 5425 5425 5425 5426 5426
5480 5478 5476 5474 5471 5469 5467 5464 5461 5459 5458 5456 5454 5453 5451 5450 5448 5446 5444 5443 5441 5439 5437 5435 5432 5430 5428 5426 5424 5423 5421 5420 5418 5417 5416 5416 5415 5413 5413 5413 5412 5413 5413 5413
5472 5470 5468 5466 5463 5461 5459 5456 5454 5452 5450 5448 5446 5445 5443 5441 5439 5437 5436 5434 5432 5429 5427 5425 5423 5421 5419 5417 5415 5413 5411 5410 5408 5407 5406 5404 5403 5403 5401 5401 5401 5400 5400 5401
5464 5462 5460 5457 5455 5453 5450 5448 5446 5444 5442 5440 5438 5436 5435 5433 5431 5429 5427 5425 5423 5420 5418 5416 5414 5411 5409 5407 5405 5403 5401 5399 5398 5396 5395 5393 5392 5391 5391 5390 5389 5389 5388 5388
5455 5453 5451 5449 5447 5445 5442 5440 5438 5436 5434 5432 5430 5428 5426 5425 5423 5421 5419 5416 5414 5411 5409 5407 5404 5402 5399 5397 5395 5393 5391 5389 5387 5385 5384 5382 5381 5380 5379 5379 5378 5377 5376 5376
5447 5445 5443 5441 5438 5436 5434 5432 5430 5428 5426 5424 5422 5420 5419 5417 5415 5413 5410 5408 5405 5403 5400 5397 5395 5392 5390 5387 5385 5383 5380 5378 5376 5375 5373 5372 5370 5369 5368 5367 5366 5366 5365 5364
5439 5436 5434 5432 5430 5428 5426 5423 5422 5420 5418 5416 5414 5412 5410 5409 5407 5404 5402 5399 5397 5394 5391 5388 5386 5383 5380 5377 5375 5372 5370 5368 5366 5364 5362 5361 5359 5358 5356 5355 5354 5353 5353 5352
5431 5429 5426 5424 5422 5420 5417 5415 5413 5411 5409 5407 5405 5404 5402 5400 5398 5396 5393 5390 5388 5385 5382 5379 5376 5373 5370 5367 5364 5362 5360 5358 5356 5354 5352 5350 5349 5347 5345 5344 5343 5341 5340 5339
5422 5420 5418 5415 5413 5411 5408 5406 5404 5402 5400 5398 5397 5395 5393 5391 5389 5386 5384 5382 5379 5376 5373 5370 5367 5364 5361 5357 5355 5352 5350 5348 5346 5344 5342 5340 5338 5336 5334 5332 5331 5330 5329 5328
5414 5412 5409 5406 5404 5401 5399 5396 5394 5393 5391 5389 5387 5386 5384 5382 5379 5377 5375 5372 5369 5367 5364 5361 5358 5355 5352 5349 5346 5343 5341 5339 5336 5334 5332 5330 5327 5325 5324 5322 5321 5319 5318 5317
5406 5403 5400 5397 5394 5392 5389 5387 5385 5383 5381 5379 5378 5376 5374 5372 5370 5367 5365 5362 5360 5357 5354 5352 5349 5346 5343 5340 5337 5335 5332 5330 5327 5325 5323 5320 5318 5316 5314 5312 5311 5310 5309 5308
5397 5394 5391 5388 5385 5382 5380 5377 5375 5373 5371 5369 5367 5365 5364 5362 5359 5357 5355 5352 5350 5347 5344 5342 5339 5336 5334 5331 5328 5326 5323 5321 5319 5316 5314 5311 5309 5307 5305 5303 5302 5300 5299 5298
5388 5385 5382 5379 5376 5373 5371 5368 5366 5364 5361 5359 5357 5355 5353 5351 5349 5346 5344 5342 5339 5336 5334 5332 5329 5327 5324 5322 5319 5317 5314 5312 5310 5307 5305 5302 5300 5298 5296 5294 5293 5292 5291 5289
5379 5376 5373 5370 5367 5365 5362 5359 5357 5354 5352 5350 5347 5345 5343 5340 5338 5336 5334 5331 5328 5326 5324 5322 5319 5317 5315 5312 5310 5308 5305 5303 5300 5298 5296 5293 5291 5289 5287 5286 5284 5283 5282 5281
5371 5368 5365 5362 5359 5356 5353 5351 5348 5345 5343 5340 5337 5335 5332 5330 5328 5325 5323 5320 5318 5316 5314 5312 5309 5307 5305 5302 5300 5298 5296 5293 5291 5289 5286 5284 5282 5280 5279 5278 5276 5275 5274 5273
5362 5359 5356 5353 5350 5347 5344 5342 5339 5336 5333 5330 5328 5325 5322 5320 5317 5315 5312 5310 5308 5306 5304 5301 5299 5297 5295 5292 5290 5288 5286 5284 5282 5280 5278 5276 5274 5272 5271 5269 5268 5267 5266 5264
5354 5350 5347 5344 5341 5338 5335 5333 5330 5327 5324 5321 5318 5315 5312 5310 5307 5305 5302 5300 5298 5296 5294 5291 5289 5287 5284 5282 5280 5278 5276 5274 5273 5271 5269 5267 5265 5264 5263 5261 5260 5259 5258 5257
5345 5342 5338 5335 5332 5329 5326 5323 5321 5318 5315 5312 5309 5306 5303 5300 5297 5295 5292 5290 5288 5285 5283 5281 5279 5277 5274 5272 5270 5269 5267 5265 5263 5262 5260 5258 5257 5256 5254 5253 5252 5251 5250 5249